Skip Page Navigation
NASA JPL Caltech
NASA Logo - Jet Propulsion Laboratory + View the NASA Portal
+ Near-Earth Object (NEO) Program
Search JPL
JPL Home Earth Solar System Stars & Galaxies Technology
JPL Solar System Dynamics
BODIES ORBITS EPHEMERIDES TOOLS PHYSICAL DATA DISCOVERY FAQ SITE MAP
JPL Small-Body Database Browser
Search: [ help ]  
29636 (1998 VH6)
Classification: Main-belt Asteroid          SPK-ID: 2029636
Ephemeris | Orbit Diagram | Orbital Elements | Physical Parameters | Discovery Circumstances ]

[ show orbit diagram ]
Orbital Elements at Epoch 2457000.5 (2014-Dec-09.0) TDB
Reference: JPL 10 (heliocentric ecliptic J2000)
 Element Value Uncertainty (1-sigma)   Units 
e .09969660619826642 6.3757e-08  
a 2.30154038129862 1.4135e-08 AU
q 2.072084616254883 1.4781e-07 AU
i 9.427933300658189 8.7786e-06 deg
node 24.5754206385739 3.2687e-05 deg
peri 68.63212363788996 5.9355e-05 deg
M 179.8446067983934 4.6583e-05 deg
tp 2456363.379992460755
(2013-Mar-11.87999246)
0.00016362 JED
period 1275.341011316762
3.49
1.1749e-05
3.217e-08
d
yr
n .2822774432920555 2.6004e-09 deg/d
Q 2.530996146342356 1.5544e-08 AU
  Orbit Determination Parameters
   # obs. used (total)      623  
   data-arc span      8220 days (22.51 yr)  
   first obs. used      1991-11-28  
   last obs. used      2014-05-31  
   planetary ephem.      DE431  
   SB-pert. ephem.      SB431-BIG16  
   condition code      0  
   fit RMS      .55058  
   data source      ORB  
   producer      Otto Matic  
   solution date      2014-Oct-09 15:01:13  

Additional Information
 Earth MOID = 1.10883 AU 
 T_jup = 3.566 
[ show covariance matrix ]

Ephemeris | Orbit Diagram | Orbital Elements | Physical Parameters | Discovery Circumstances ]

Physical Parameter Table
Parameter Symbol Value Units Sigma Reference Notes
absolute magnitude H 15.0 mag n/a MPO296368  

29636 (1998 VH6)          Discovered 1998-Nov-11 by Shimizu, Y., Urata, T. at Nachi-Katsuura (905)
Reference: 20011002/Numbers.arcLast Updated: 2004-04-19

Alternate Designations
 1998 VH6 = 2000 GJ70 
Ephemeris | Orbit Diagram | Orbital Elements | Physical Parameters | Discovery Circumstances ]
ABOUT SSD CREDITS/AWARDS PRIVACY/COPYRIGHT GLOSSARY LINKS
FirstGov 2014-Oct-31 18:41 UT
(server date/time)  
NASA Home Page
Site Manager:   Donald K. Yeomans
Webmaster  Alan B. Chamberlin